Location: Alafon
(8.4500°N, 4.2333°E)
Time: 22:53:44
(UTC+00:00)

deb Explorer IX - Pass Details

Date: 28 July 2021
Orbit: 545 x 1091 km, 38.8° (Epoch: 19 September)

Event Time Altitude Azimuth Distance (km) Brightness Sun altitude
Rises 11:45:23 0° 246° (WSW) 2,777 ? 79.5°
Reaches altitude 10° 11:47:39 10° 254° (WSW) 1,929 ? 79.6°
Maximum altitude 11:51:48 38° 323° (NW) 979 ? 79.6°
Drops below altitude 10° 11:56:30 10° 32° (NNE) 2,198 ? 79.5°
Sets 11:59:16 0° 40° (NE) 3,220 ? 79.3°
